Diepholz Airport ETND

Flugplatz Daten

Name: Diepholz Airport

Ident: ETND

Lat: 52,58555603

Long: 8,342222214

Platzhöhe: 128 ft

IataCode:

City: Diepholz

Metar

2022/08/10 13:20
ETND 101320Z 05007KT 9999 SCT390 28/09 Q1025 BLU+

Taf

2021/09/08 11:49
TAF ETND 081035Z 0811/0911 CNL 1035 BY ETGL
Gewünschte Webcam nicht vorhanden? Dann fügen Sie eine hinzu. Sie wird dann so schnell wie möglich freigeschaltet
Url: Title: